Sigil TimeFrame

99 2021-03-07 17:28:35
NameTime LeftWindow Opens
Jade Dragonite3d 00:512021-03-05 06:05:02
Animated Captain2d 02:112021-03-06 04:45:01
Jazzmin, Maiden of Vitality1d 05:412021-03-07 01:15:01
King Ashnar, Lord of the Unliving0d 23:412021-03-07 07:15:02
Thanox, Balancer of Chaos0d 23:162021-03-07 07:40:02
Kro Shuk, Doomslayer0d 21:412021-03-07 09:15:02
Threk, King of Lords0d 21:262021-03-07 09:30:02
Esquin, the Kinetic Master0d 21:062021-03-07 09:50:01
Lady Ariella0d 15:512021-03-07 15:05:02
Murderface0d 15:462021-03-07 15:10:02
Dexor, Victor of Veldara0d 13:562021-03-07 17:00:04
Ganja the Stone Golem0d 13:112021-03-07 17:45:02
Grivvek, Protector of the Brood0d 12:512021-03-07 18:05:01
Crane0d 08:512021-03-07 22:05:02
Synge, The Red Dragon0d 07:162021-03-07 23:40:02
Vitkros, Hydra of the Deep0d 05:462021-03-08 01:10:01
Hyrak, Bringer of Nightmares0d 04:312021-03-08 02:25:02
Detox0d 03:162021-03-08 03:40:02
Jorun the Blazing Swordsman0d 02:062021-03-08 04:50:02
Pinosis0d 00:062021-03-08 06:50:02
Lord Sibannac0d 01:182021-03-08 08:15:01
Smoot the Yeti0d 02:282021-03-08 09:25:03
Akkel the Enflamed Warrior0d 04:382021-03-08 11:35:02
Samatha Dark-Soul0d 06:582021-03-08 13:55:02
Tsort0d 08:082021-03-08 15:05:02
Wanhiroeaz the Devourer0d 10:232021-03-08 17:20:01
Ebliss, Fallen Angel of Despair0d 11:482021-03-08 18:45:01
Baron Mu, Dark Rider of the Undead0d 11:582021-03-08 18:55:01
Keeper of Nature0d 11:582021-03-08 18:55:01
Freezebreed, The Frozen Manipulator0d 12:332021-03-08 19:30:01
Ag Nabak the Abomination0d 13:082021-03-08 20:05:01
Volgan the Living Ironbark0d 13:382021-03-08 20:35:02
Tylos, The Lord Master0d 14:532021-03-08 21:50:02
Garland, The Lord Keeper0d 15:232021-03-08 22:20:01
Bloodchill the Grizzly0d 16:032021-03-08 23:00:02
Terrance, Rebel of Rallis0d 16:232021-03-08 23:20:02
Slashbrood, Devourer of the Blackness0d 16:332021-03-08 23:30:02
Lord Varan0d 16:482021-03-08 23:45:02
Brutalitar, Lord of the Underworld0d 17:032021-03-09 00:00:01
Gorganus of the Wood0d 17:232021-03-09 00:20:01
Archdevil Yirkon0d 18:482021-03-09 01:45:01
Sarcrina the Astral Priestess0d 19:032021-03-09 02:00:02
Anguish0d 19:482021-03-09 02:45:02
Gnorb0d 22:532021-03-09 05:50:02
Karvaz, Lord of Alsayic0d 22:532021-03-09 05:50:02
Nessam1d 01:082021-03-09 08:05:02
Straya, the Underworld Ruler1d 01:482021-03-09 08:45:02
Lord Narada1d 01:582021-03-09 08:55:02
Howldroid, Tormentor of the Pit1d 02:582021-03-09 09:55:01
Shadow1d 04:282021-03-09 11:25:02
Traxodon the Plaguebringer1d 04:582021-03-09 11:55:01
Ancient Magus Tarkin1d 06:082021-03-09 13:05:02
Zikkir the Dark Archer1d 06:382021-03-09 13:35:01
Rotborn, Eater of the Dead1d 07:382021-03-09 14:35:02
Dreg nor, Keeper of the Infernal Essence1d 08:132021-03-09 15:10:01
Nafir, God of Desolation1d 08:332021-03-09 15:30:02
Lord Xordam1d 08:582021-03-09 15:55:02
Lady Chaos, Queen of the Abyss1d 09:032021-03-09 16:00:02
The Emerald Assassin1d 09:182021-03-09 16:15:01
Rancid, Lord of Thugs1d 09:232021-03-09 16:20:02
Mistress of the Sword1d 09:282021-03-09 16:25:01
Numerocure, The Black Messenger of Evil1d 10:332021-03-09 17:30:02
Melt Bane, The Forbidden Demon Dragon1d 11:382021-03-09 18:35:02
Windstrike The Vile1d 12:082021-03-09 19:05:01
Amalgamated Apparition1d 12:132021-03-09 19:10:02
Hackerphage, Protector of the Gateway1d 14:332021-03-09 21:30:02
Old World Drake1d 16:332021-03-09 23:30:02
Sylvanna TorLai1d 17:482021-03-10 00:45:01
Xynak, the Arcane Master1d 19:382021-03-10 02:35:02
Lord Suka1d 20:082021-03-10 03:05:02
Quiver, The Renegade1d 21:132021-03-10 04:10:02
Skarthul the Avenged2d 00:532021-03-10 07:50:03
Zertan, The Collector2d 01:032021-03-10 08:00:01
Dlanod, the Crazed Chancellor2d 07:232021-03-10 14:20:02
Anvilfist2d 12:382021-03-10 19:35:02
Emperor Neudeus, Controller of the Universe2d 13:582021-03-10 20:55:02
Sigil, Lich of Woe2d 18:332021-03-11 01:30:02
Murfax, Beast of the Caves2d 21:032021-03-11 04:00:02
Nayark the Mummified Sorcerer2d 21:132021-03-11 04:10:01
Bolkor, the Holy Master2d 21:232021-03-11 04:20:01
Ormsul the Putrid2d 22:532021-03-11 05:50:03
Great Lord Ganeshan2d 22:582021-03-11 05:55:02
Crolvak, the Fire Master3d 00:282021-03-11 07:25:02
Skybrine The Inescapable3d 00:382021-03-11 07:35:01
Viserion, the Necrodragon3d 00:532021-03-11 07:50:01
Raiyar, the Shadow Master3d 06:482021-03-11 13:45:01
Varsanor, Master of Darkness3d 08:282021-03-11 15:25:01
Nar Zhul, Slayer of All3d 16:382021-03-11 23:35:02
Felroc, Overseer of Hellfire3d 16:432021-03-11 23:40:02
Q-SEC Commander3d 19:282021-03-12 02:25:02
Lacuste of the Swarm3d 23:132021-03-12 06:10:01
Crantos, Defender of Ultimation4d 05:432021-03-12 12:40:01
Gregov, Knight of the Woods4d 10:582021-03-12 17:55:02
Kretok, Descendant of Nature4d 15:282021-03-12 22:25:02
Balerion, Dragon of Dread5d 05:182021-03-13 12:15:02
Rook, Hand of Arkron226d 19:212020-07-24 11:35:00
Shaik, Servant of Arkron226d 19:152020-07-24 11:41:00
Beast of Cards13d 12:512021-02-22 18:05:01
Noxious Slug13d 12:462021-02-22 18:10:02